Weather History for KONO - April, 2013

Change the Weather History Date:

Monday, April 22, 2013

  Actual Average Record
Temperature  
Mean Temperature 49 °F 52 °F  
Max Temperature 61 °F 67 °F 88 °F (1977)
Min Temperature 36 °F 37 °F 24 °F (1951)
Degree Days  
Heating Degree Days 16 13  
Month to date heating degree days 298 345  
Since 1 July heating degree days 5436 5645  
Cooling Degree Days 0 0  
Month to date cooling degree days 0 0  
Year to date cooling degree days 0 0  
Growing Degree Days 1 (Base 50)    
Moisture  
Dew Point 21 °F    
Average Humidity 37    
Maximum Humidity 58    
Minimum Humidity 15    
Precipitation  
Precipitation 0.00 in 0.03 in 0.39 in (2004)
Month to date precipitation 0.21 0.58  
Year to date precipitation 1.41 3.57  
Sea Level Pressure  
Sea Level Pressure 30.26 in    
Wind  
Wind Speed 16 mph (NW)    
Max Wind Speed 28 mph    
Max Gust Speed 39 mph    
Visibility 10 miles    
Events      
T = Trace of Precipitation, MM = Missing Value Source: NWS Daily Summary

Daily Weather History Graph

Daily Weather History Graph

Search for Another Location

Airport or City:

Trip Planner

Search our weather history database for the weather conditions in past years. The results will help you decide how hot, cold, wet, or windy it might be!

Date:

Astronomy

Apr. 22, 2013 Rise Set
Actual Time 6:52 AM MDT 8:40 PM MDT
Civil Twilight 6:22 AM MDT 9:11 PM MDT
Nautical Twilight 5:44 AM MDT 9:49 PM MDT
Astronomical Twilight 5:04 AM MDT 10:30 PM MDT
Moon 5:29 PM MDT (4/22) 4:56 AM MDT (4/22)
Length of Visible Light 14h 49m
Length of Day
13h 48m
Waxing Gibbous, 88% of the Moon is Illuminated
Apr 22
Waxing Gibbous
Apr 25
Full
May 2
Last Quarter
May 9
New
May 17
First Quarter

Hourly Weather History & Observations

Time (MDT) Temp. Windchill Dew Point Humidity Pressure Visibility Wind Dir Wind Speed Gust Speed Precip Events Conditions
12:53 AM 46.9 °F - 32.0 °F 56% 30.13 in 10.0 mi NW 18.4 mph 31.1 mph N/A   Clear
1:53 AM 46.0 °F 38.5 °F 30.0 °F 54% 30.15 in 10.0 mi NW 19.6 mph 31.1 mph N/A   Clear
2:53 AM 45.0 °F 36.4 °F 28.0 °F 52% 30.15 in 10.0 mi NW 23.0 mph 31.1 mph N/A   Clear
3:53 AM 44.1 °F 35.2 °F 28.0 °F 53% 30.17 in 10.0 mi WNW 23.0 mph - N/A   Partly Cloudy
4:53 AM 45.0 °F 36.6 °F 28.0 °F 52% 30.19 in 10.0 mi NW 21.9 mph - N/A   Overcast
5:53 AM 44.1 °F 35.7 °F 28.0 °F 53% 30.21 in 10.0 mi NW 20.7 mph 28.8 mph N/A   Overcast
6:53 AM 42.1 °F 33.9 °F 28.0 °F 58% 30.24 in 10.0 mi WNW 17.3 mph - N/A   Clear
7:53 AM 43.0 °F 34.8 °F 28.9 °F 58% 30.27 in 10.0 mi WNW 18.4 mph - N/A   Clear
8:53 AM 46.0 °F 38.3 °F 30.0 °F 54% 30.30 in 10.0 mi WNW 20.7 mph - N/A   Clear
9:53 AM 50.0 °F - 27.0 °F 41% 30.30 in 10.0 mi NW 19.6 mph 26.5 mph N/A   Clear
10:53 AM 53.1 °F - 23.0 °F 31% 30.30 in 10.0 mi NW 16.1 mph 24.2 mph N/A   Clear
11:53 AM 55.0 °F - 19.0 °F 24% 30.30 in 10.0 mi NNW 18.4 mph 29.9 mph N/A   Clear
12:53 PM 57.0 °F - 16.0 °F 20% 30.30 in 10.0 mi NNW 24.2 mph 29.9 mph N/A   Clear
1:53 PM 57.9 °F - 12.0 °F 16% 30.29 in 10.0 mi NNW 16.1 mph 26.5 mph N/A   Clear
2:53 PM 59.0 °F - 14.0 °F 17% 30.28 in 10.0 mi NNW 12.7 mph 21.9 mph N/A   Clear
3:53 PM 60.1 °F - 12.0 °F 15% 30.28 in 10.0 mi NNW 16.1 mph 27.6 mph N/A   Clear
4:53 PM 60.1 °F - 12.0 °F 15% 30.26 in 10.0 mi NNW 16.1 mph 28.8 mph N/A   Clear
5:53 PM 57.9 °F - 12.9 °F 17% 30.26 in 10.0 mi NNE 11.5 mph 21.9 mph N/A   Clear
6:53 PM 57.0 °F - 10.9 °F 16% 30.27 in 10.0 mi North 9.2 mph 19.6 mph N/A   Clear
7:53 PM 55.0 °F - 12.9 °F 19% 30.28 in 9.0 mi North 9.2 mph 17.3 mph N/A   Clear
8:53 PM 50.0 °F - 16.0 °F 26% 30.31 in 10.0 mi North 8.1 mph - N/A   Clear
9:53 PM 44.1 °F 39.0 °F 16.0 °F 32% 30.34 in 10.0 mi NNW 9.2 mph - N/A   Clear
10:53 PM 43.0 °F 36.8 °F 16.0 °F 34% 30.36 in 10.0 mi NNW 11.5 mph - N/A   Clear
11:53 PM 37.0 °F 31.6 °F 19.9 °F 50% 30.37 in 10.0 mi SW 6.9 mph - N/A   Clear